Tracking 22130 objects as of 21-Jan-2021
HD Live streaming from Space Station
objects crossing your sky now

CZ-2C DEB

Track CZ-2C DEB now!
10-day predictions


NORAD ID: 37733
Int'l Code: 2011-030D
Perigee: 691.6 km
Apogee: 911.8 km
Inclination: 98.4 °
Period: 100.8 minutes
Semi major axis: 7172 km
RCS: 0.096 m2 (small)
Launch date: July 6, 2011
Source: People's Republic of China (PRC)
Launch site: Jiuquan Satellite Launch Center, China (JSC)

Note: This is SATELLITE DEBRIS
aabbcc
Your satellite tracking list
Your tracking list is empty




NASA's NSSDC Master Catalog

Two Line Element Set (TLE):
1 37733U 11030D   21020.66338149  .00000377  00000-0  14638-3 0  9995
2 37733  98.3501 354.0247 0153477 342.4858 191.2068 14.29155243496784
Source of the keplerian elements: AFSPC